Showing default

PELICAN 3009, 62631

Orbit data source: Space-Track

PELICAN 3009, 62631 is a payload satellite owned by Planet (US) in SSO that was launched on Tue, 14 Jan 2025 UTC via an FALCON 9 launch vehicle from the Air Force Western Test Range (AFWTR). Payload-class satellites include a variety of spacecraft equipped with specific instruments for various scientific and technological missions. These include communications satellites like Starlink; space stations such as the ISS; scientific satellites like the Hubble; Earth observation satellites from companies like Planet Labs, Umbra, and HawkEye 360; GPS; miniature CubeSats for education and research; and military/defense satellites.

Loading next visibility...
Identifier
62631, 2025-009Y
Orbit
SSO
Country
Flag of USUS
Related business
Manufacturer
Planet
Mission
Operational Commercial Imaging
Bus & Motor
PELICAN, XE AOCS
Mass
160 kg wet, 146 kg dry
Launch date (UTC)
2025-01-14 (9 months ago)
Launch vehicle
FALCON 9
Launch site
Air Force Western Test Range (AFWTR)
Object type
Payload
Rocket body
Debris
Shape & HBR
Box + 2 Pan, 1.0 m
Radar Cross Section
1.955 m², Large (>1 m²)

Expand to show TLE details & history
Last TLE update: 19 hours ago

TLE from 19 hours ago
0 PELICAN 3009
1 62631U 25009Y   25300.67721899  .00104832  00000-0  25626-2 0  9994
2 62631  97.4185  24.2173 0010586 244.7262 115.2888 15.40358101 43761
Epoch: 2025-10-27T16:15Z
TLE epoch observation values (Epoch: 2025-10-27T16:15:11.720Z)
Latitude
Longitude
104.14284°
Altitude
451.262 km
Speed
7.64 km/s
True Right ascension
01h 36m 52s
True Declination
0° 00' 00"
Sunlit
Object was in full shadow at epoch
Visualization orbit readout
Latitude
Unknown
Longitude
Unknown
Altitude
Unknown
Speed
Unknown
Apparent Right ascension
Unknown
Apparent Declination
Unknown
Sunlit
N/A
Visualization observer readout
Local Sidereal Time
06:35:13
Azimuth
Unknown
Elevation
Unknown
Doppler factor
Unknown
Orbital elements
Apogee altitude
449.211 km
Perigee altitude
434.771 km
Semi-major axis
6,820.128 km
Eccentricity
0.00106
Inclination
97.4185°
RAAN
24.2173°
Arg. of periapsis
244.7262°
True anomaly
115.39842°
Mean anomaly
115.2888°
Eccentric anomaly
115.34362°
Mean motion
3.85349 °/min
Orbital period
93.42 mins
BSTAR
0.0025626
Loading maneuver chart data...
Computing Atmospheric mass density...
Loading historical data...
Loading historical data...
Loading historical data...
Loading historical data...
Loading historical data...
Loading historical data...
Loading historical data...

Documentation

Showing up to 5 results
|